Notices

What's New in latest Release from April 7th, 2021:

- Updated Glossary, including Speed of Maximum Gust, and Total Hourly Precipitation

- Updated national and regional climate services offices contacts and prices information

- Addition of station inventory lists for 1981-2010, 1971-2000, and 1961-1990 Normals.

If you haven't already, please take our survey and provide feedback about our website: https://eccc.sondage-survey.ca/f/LanguageSelection.aspx?s=442ca660-fcf1-47c0-95a9-59707d6fd709

Hourly Data Report for February 03, 2012

HALIFAX STANFIELD INT'L A
NOVA SCOTIA

44°52'48.060" N
63°30'00.050" W
145.40 m
8202250
71395
YHZ

Download Data

Hourly Data (February 2012)
Hourly Data Report for February 3, 2012
TIME
LST
Temp Definition
°C
Dew Point Definition
°C
Rel Hum Definition
%
Precip. Amount Definition
mm

Wind Dir Definition
10's deg

Wind Spd Definition
km/h
Visibility Definition
km
Stn Press Definition
kPa
Hmdx Definition


Wind Chill Definition


Weather Definition


00:00 -8.8 -11.1 83   2 22 24.1 100.01   -17 Snow Showers
01:00 -8.9 -11.1 84   2 15 24.1 100.02   -15 Snow Showers
02:00 -9.1 -11.0 86   1 17 24.1 100.00   -16 Snow Showers
03:00 -9.3 -11.1 87   36 19 24.1 100.00   -17 Snow Showers
04:00 -9.5 -11.4 86   36 19 24.1 99.98   -17 Snow Showers
05:00 -9.1 -11.1 85   36 20 24.1 99.97   -17 Snow Showers
06:00 -9.0 -11.1 85   36 24 24.1 99.98   -17 Snow Showers
07:00 -8.7 -11.0 83   36 24 24.1 100.04   -17 Snow Showers
08:00 -8.4 -10.8 83   36 19 19.3 100.09   -16 Snow Showers
09:00 -8.1 -10.2 85   35 22 19.3 100.09   -16 Snow Showers
10:00 -7.8 -10.5 81   36 24 19.3 100.09   -16 Snow Showers
11:00 -7.5 -10.3 80   34 20 19.3 100.08   -15 Snow Showers
12:00 -7.4 -11.0 75   36 32 24.1 99.99   -16 Mostly Cloudy
13:00 -7.1 -11.2 72   35 35 24.1 99.95   -16 Mostly Cloudy
14:00 -7.2 -11.5 71   34 26 24.1 99.94   -15 Mostly Cloudy
15:00 -7.3 -11.8 70   26 24 24.1 99.93   -15 Mostly Cloudy
16:00 -7.4 -12.2 68   36 32 24.1 99.96   -16 Mostly Cloudy
17:00 -8.7 -12.6 73   36 24 24.1 100.02   -17 Mostly Cloudy
18:00 -9.5 -12.4 79   35 20 24.1 100.09   -17 Mostly Cloudy
19:00 -10.1 -12.8 81   34 22 24.1 100.10   -18 Mainly Clear
20:00 -10.8 -13.1 83   34 17 24.1 100.09   -18 Clear
21:00 -11.4 -14.0 81   34 13 24.1 100.10   -18 Mainly Clear
22:00 -11.9 -14.1 84   34 7 24.1 100.02   -16 Mainly Clear
23:00 -12.1 -14.0 86   32 9 24.1 99.97   -17 Mostly Cloudy

Notes on Data Quality.

Legend

  • E = Estimated
  • M = Missing
  • NA = Not Available*
  • [empty] = Indicates an unobserved value
Date modified: